Simultaneous Nadir Overpasses (SNOs) Predictions

Prediction of SNOs between GOES-16 and AQUA Satellite Orbit:

Table of predicted SNOs for the next 14.0 days since TLE Epoch: 1/8/2018
Index Date Time (GOES-16) GOES-16 Lat,Lon AQUA Lat,Lon Distance(km) Time Diff (sec)
1 01/09/2018 06:23:37 0.01, -75.17 -0.58, -72.38 316.98 80
2 01/09/2018 18:45:01 -0.01, -75.20 -0.55, -77.57 269.79 80
3 01/11/2018 18:35:31 -0.01, -75.21 0.13, -74.62 67.39 80
4 01/13/2018 18:23:20 -0.01, -75.22 0.74, -71.66 404.98 80
5 01/14/2018 06:44:36 0.02, -75.20 0.34, -76.82 184.07 80
6 01/16/2018 06:29:45 0.01, -75.21 -0.29, -73.86 154.09 80
7 01/16/2018 18:51:09 -0.02, -75.25 -0.84, -79.05 432.50 80
8 01/18/2018 06:17:34 0.01, -75.23 -0.91, -70.90 492.69 80
9 01/18/2018 18:41:38 -0.01, -75.27 -0.21, -76.09 93.74 80
10 01/20/2018 18:26:48 -0.01, -75.30 0.48, -73.14 245.68 80
11 01/21/2018 06:50:43 0.01, -75.28 0.65, -78.29 342.55 80




NCC Satellite Simultaneous Nadir Overpasses (SNOs) Prediction Service
